Dewpoint
8 8 8 8 8 8 7 6 6 6 6 7 7 7 8 7 7 7 7 7 7 6 5 3 6 6 7 8 8 8 8 7 5 6 5 5 4 4 2 1 -1 -0 -2
6 7 8 8 8 8 7 7 6 6 6 6 7 7 7 7 7 7 5 3 3 3 4 5 6 9 8 7 7 7 8 7 7 6 7 5 4 4 3 2 1 -2 -2
7 7 7 6 6 7 5 6 7 6 7 7 8 8 7 7 6 5 4 2 3 7 7 8 7 9 7 7 8 7 7 6 7 6 6 5 4 4 3 1 -1 -1 -1
8 7 6 5 4 5 4 4 5 4 4 4 4 4 5 6 7 8 7 7 7 8 8 8 8 9 6 8 7 7 7 7 7 6 6 4 4 2 2 0 -0 -0 -1
8 8 7 5 4 5 3 2 3 5 4 5 7 8 8 8 8 7 8 8 9 9 9 8 8 7 7 7 6 6 5 5 4 4 3 2 2 2 0 -0 -1 -2 -3
8 8 8 8 6 6 6 7 5 6 7 6 8 8 7 8 9 9 9 9 9 8 7 7 7 6 6 6 5 5 4 4 3 3 1 1 0 -0 -1 -1 -3 -4 -4
8 8 8 8 8 8 8 8 8 8 8 8 9 9 9 9 9 9 9 8 8 7 7 6 5 5 4 4 4 3 2 2 2 1 0 -0 -1 -2 -3 -4 -5 -6 -7
8 9 8 8 9 9 9 9 9 8 9 9 9 9 9 8 8 8 8 7 7 6 5 5 4 3 2 1 1 1 -0 -0 -1 -1 -2 -3 -4 -5 -6 -6 -7 -8 -8
9 8 8 8 9 9 9 8 8 8 8 8 8 7 7 7 7 7 6 5 4 4 3 2 0 -0 -1 -2 -2 -3 -3 -3 -4 -4 -4 -4 -4 -5 -7 -9 -8 -8 -8
8 8 9 9 9 8 8 8 8 8 7 7 6 5 5 4 4 4 3 2 2 1 -1 -2 -3 -3 -3 -3 -3 -3 -3 -4 -4 -4 -5 -6 -7 -8 -8 -9 -9 -9 -9
9 9 8 8 8 7 7 6 6 6 5 5 4 3 2 1 1 0 -1 -1 -2 -2 -3 -4 -4 -4 -4 -4 -4 -5 -6 -6 -7 -8 -9 -9 -9 -10 -10 -10 -10 -11 -11
8 8 7 7 6 6 5 5 4 4 4 2 1 0 -1 -2 -3 -3 -4 -4 -4 -4 -4 -5 -5 -6 -6 -7 -8 -9 -9 -9 -10 -10 -11 -11 -11 -11 -12 -12 -12 -12 -12
7 6 5 4 4 4 3 3 2 2 1 -0 -1 -2 -3 -4 -4 -4 -4 -5 -5 -6 -7 -7 -8 -9 -9 -9 -10 -11 -11 -11 -11 -12 -12 -12 -13 -13 -13 -13 -14 -14 -14
4 3 3 3 2 2 1 1 0 -1 -2 -3 -4 -4 -5 -6 -7 -7 -8 -8 -9 -10 -11 -11 -11 -11 -11 -11 -11 -12 -12 -13 -13 -13 -13 -14 -14 -14 -15 -15 -15 -14 -14
2 1 1 0 0 -0 -1 -3 -3 -4 -4 -5 -6 -6 -8 -8 -9 -10 -10 -11 -12 -12 -11 -11 -11 -11 -11 -12 -12 -12 -13 -13 -14 -14 -15 -15 -15 -15 -15 -15 -16 -16 -16
0 -1 -2 -3 -3 -4 -4 -5 -6 -6 -7 -7 -8 -9 -9 -10 -11 -11 -12 -13 -13 -14 -12 -13 -13 -13 -13 -14 -14 -14 -15 -15 -16 -16 -16 -16 -17 -17 -17 -17 -17 -17 -17
-1 -2 -3 -4 -5 -6 -7 -8 -8 -9 -10 -10 -11 -11 -12 -12 -12 -13 -14 -15 -16 -16 -14 -15 -15 -15 -16 -16 -16 -16 -17 -17 -18 -18 -18 -18 -18 -18 -18 -18 -18 -18 -18
-3 -4 -5 -6 -7 -8 -8 -9 -10 -11 -12 -12 -13 -14 -15 -15 -17 -20 -23 -24 -16 -17 -17 -17 -17 -17 -18 -18 -18 -19 -19 -19 -20 -20 -20 -20 -20 -20 -19 -19 -19 -19 -19
-5 -6 -7 -8 -9 -10 -11 -12 -12 -12 -13 -14 -15 -17 -23 -26 -30 -32 -32 -19 -18 -18 -18 -18 -19 -19 -20 -20 -20 -20 -21 -21 -21 -21 -21 -21 -21 -21 -20 -20 -20 -20 -20
-9 -10 -11 -13 -14 -15 -17 -19 -19 -17 -17 -17 -20 -24 -20 -17 -18 -19 -19 -20 -20 -20 -20 -20 -20 -21 -21 -21 -21 -21 -21 -22 -22 -22 -22 -22 -22 -21 -21 -21 -21 -20 -20
-13 -14 -18 -27 -31 -31 -29 -25 -19 -16 -16 -17 -22 -30 -28 -19 -19 -20 -20 -21 -21 -21 -21 -21 -22 -22 -22 -22 -22 -22 -23 -23 -23 -23 -23 -22 -22 -22 -22 -21 -21 -21 -20
-31 -33 -35 -37 -35 -34 -28 -23 -20 -19 -18 -18 -19 -22 -27 -20 -20 -20 -21 -23 -23 -22 -22 -22 -22 -23 -23 -23 -24 -24 -24 -24 -24 -24 -24 -24 -23 -23 -22 -22 -21 -21 -21
-38 -39 -39 -38 -37 -33 -28 -25 -23 -22 -21 -21 -20 -21 -23 -25 -24 -24 -25 -25 -25 -25 -25 -25 -25 -25 -24 -24 -24 -24 -24 -24 -24 -25 -25 -24 -24 -23 -23 -22 -22 -21 -21
-39 -38 -37 -35 -32 -31 -29 -27 -27 -28 -26 -25 -26 -26 -26 -26 -24 -25 -25 -26 -26 -26 -26 -26 -26 -26 -25 -24 -23 -22 -22 -22 -22 -22 -24 -24 -24 -24 -23 -23 -23 -22 -22
-36 -35 -33 -31 -30 -29 -28 -28 -28 -28 -27 -27 -27 -26 -26 -26 -25 -26 -26 -26 -26 -26 -25 -24 -23 -23 -22 -22 -22 -22 -22 -21 -21 -22 -22 -23 -24 -24 -24 -23 -23 -22 -22
-32 -32 -31 -30 -29 -29 -28 -28 -27 -27 -27 -26 -26 -26 -26 -26 -26 -26 -25 -25 -24 -24 -23 -23 -22 -22 -22 -22 -21 -21 -21 -21 -21 -21 -21 -21 -22 -24 -23 -23 -23 -22 -22
Wind_Speed
27 28 29 29 30 33 33 36 37 37 34 32 32 31 32 35 35 36 37 38 36 40 41 46 48 51 52 52 44 53 51 43 50 52 39 31 34 38 37 37 40 38 34
28 28 29 28 30 32 36 35 36 37 37 37 35 33 33 34 37 38 44 48 47 46 47 51 54 52 49 58 59 48 51 57 47 49 43 40 41 42 39 38 38 35 31
28 29 29 30 31 32 34 36 31 32 31 29 30 31 31 32 33 37 43 42 42 49 47 48 42 42 44 48 47 47 49 50 48 47 46 46 46 44 41 36 35 34 27
29 29 29 29 29 28 29 30 31 30 30 31 32 32 31 30 29 30 35 39 42 42 43 42 44 40 39 40 45 48 48 50 54 57 48 50 48 43 37 37 36 36 30
29 29 28 28 27 27 27 28 28 28 29 28 26 27 27 28 31 34 36 35 34 33 35 37 36 38 39 41 41 45 44 44 43 46 45 44 36 33 36 34 34 26 23
25 24 23 23 24 25 25 25 26 27 28 28 27 26 29 29 27 24 25 30 32 33 32 33 34 34 34 35 35 37 37 35 35 37 42 36 31 28 28 26 25 21 15
20 19 19 19 20 21 20 20 21 23 21 21 21 22 25 26 26 27 28 28 26 27 28 30 29 28 28 28 27 28 28 27 26 26 25 24 22 20 19 18 16 15 18
16 15 14 14 13 12 13 14 16 20 20 23 23 23 24 24 23 23 22 21 20 20 21 22 22 22 20 17 16 17 16 16 17 17 16 15 14 14 15 17 20 22 21
19 17 15 15 15 15 15 16 17 17 17 16 15 14 13 11 13 15 16 14 14 14 14 13 12 10 9 9 8 8 9 12 14 15 17 19 21 21 18 17 18 18 24
18 17 16 14 13 13 13 12 11 9 9 8 6 3 2 3 6 7 7 7 6 5 3 3 3 6 9 11 13 14 15 16 18 20 21 22 21 20 21 24 26 25 23
24 22 20 18 16 14 13 11 9 8 7 5 4 4 3 5 6 3 3 3 4 5 6 7 9 11 13 16 17 17 17 17 19 18 19 19 20 21 23 24 25 27 27
25 24 23 21 18 14 10 9 8 6 6 7 7 8 7 9 9 9 8 7 6 7 9 11 14 16 18 18 17 16 16 14 15 15 17 17 16 16 17 19 24 25 26
26 23 21 18 16 14 12 12 11 9 9 10 8 9 9 8 6 5 6 8 10 11 12 13 15 15 15 13 15 14 13 12 13 13 13 13 15 16 23 23 23 23 25
26 23 22 20 20 18 16 14 14 13 12 11 10 9 7 6 6 7 9 11 12 13 14 14 14 14 15 14 14 14 14 12 13 13 12 14 14 16 17 18 19 20 21
28 26 24 22 21 19 19 18 15 14 11 9 8 6 5 6 6 8 10 11 12 13 12 11 11 11 11 11 12 12 10 11 13 11 14 15 17 18 19 19 19 21 22
27 25 24 23 21 19 18 17 14 11 8 6 5 5 5 3 3 7 10 12 13 12 10 11 11 12 12 12 12 12 12 14 14 15 18 18 19 20 21 22 21 20 21
24 23 21 19 18 16 15 14 13 11 9 7 6 4 3 5 7 9 11 14 16 11 10 11 11 12 12 13 14 14 15 16 19 18 19 20 20 21 21 21 20 19 20
23 20 18 17 17 15 15 13 11 10 8 7 6 7 8 9 12 13 13 13 11 12 10 10 11 12 12 13 14 15 16 17 17 17 19 19 19 19 20 19 18 18 19
19 19 19 18 16 14 13 12 10 9 8 8 7 8 10 11 12 11 10 10 10 9 10 10 10 11 12 13 14 14 15 16 18 17 18 18 18 18 18 17 18 19 20
21 19 17 17 15 13 12 10 9 8 8 6 6 8 8 10 10 11 11 11 9 9 10 11 11 12 13 14 15 15 16 17 17 17 17 18 17 17 18 18 18 18 18
18 17 15 14 13 12 11 10 10 9 8 7 7 9 9 8 8 8 9 10 11 11 12 12 12 13 13 14 15 15 16 16 16 16 16 16 16 16 16 16 17 17 18
15 15 14 13 13 12 12 11 10 9 9 7 6 7 9 8 8 9 10 12 13 12 12 14 14 13 14 14 15 15 16 16 15 15 15 15 15 15 16 16 17 17 18
14 14 14 15 14 14 13 12 11 10 8 7 6 7 8 9 10 10 12 14 14 15 16 17 16 16 15 16 17 15 14 14 15 15 16 15 16 16 16 17 17 18 18
15 15 15 15 14 13 13 12 10 9 8 7 8 8 9 10 11 12 14 15 15 15 15 15 14 14 15 15 15 16 16 16 18 18 17 17 17 17 17 18 18 18 18
15 15 15 15 14 13 12 10 9 8 8 7 8 9 10 10 11 13 13 14 14 14 13 13 13 13 14 15 16 17 19 20 20 20 21 20 20 20 19 18 17 17 17
16 15 15 14 12 11 9 9 8 7 7 8 9 10 10 11 12 12 13 13 14 13 12 12 13 15 16 18 19 20 21 21 21 21 21 22 20 17 16 16 16 17 17
Wind_Direction
200 204 205 208 210 212 215 219 222 225 227 231 231 236 238 235 238 245 250 256 259 266 269 277 281 282 281 282 280 276 265 268 252 259 264 252 247 244 242 239 235 242 243
207 206 209 210 212 215 218 219 222 226 230 235 237 237 236 238 242 245 252 258 264 267 272 275 279 285 285 275 268 269 269 266 260 268 262 240 244 247 244 242 236 234 240
209 209 210 214 215 218 221 222 223 227 231 232 233 236 240 242 247 251 256 262 263 268 274 278 281 284 292 278 270 263 266 264 262 272 258 238 241 241 233 229 230 230 231
210 212 214 217 220 223 226 228 231 235 237 237 239 244 246 249 251 255 266 274 276 275 278 279 289 280 287 278 267 272 277 271 269 265 254 240 239 232 227 225 228 235 237
213 217 219 221 225 227 231 235 237 237 241 242 242 245 250 253 259 264 269 275 281 287 291 288 288 285 284 279 277 275 272 267 258 256 246 242 238 228 224 226 237 223 230
210 216 218 224 227 231 233 233 237 239 242 247 248 250 256 264 268 270 277 283 284 285 283 280 283 288 285 282 283 274 269 266 264 261 255 238 233 236 240 235 237 249 260
203 208 214 217 221 224 229 230 230 234 240 249 253 252 254 261 268 270 272 273 273 274 278 280 280 282 281 280 277 265 258 253 249 242 239 236 237 236 244 257 261 262 263
191 196 200 205 210 215 218 219 220 224 226 232 240 248 252 258 266 270 273 278 281 282 282 280 278 275 268 259 253 243 236 236 239 238 235 238 240 246 256 266 273 277 271
179 180 182 190 198 206 213 218 222 228 229 232 238 244 254 259 271 281 290 293 293 283 280 272 263 261 256 246 254 271 286 291 293 289 282 277 275 273 272 273 269 265 266
156 155 155 160 173 183 186 188 189 198 206 198 194 201 249 308 308 305 306 305 285 293 283 287 336 345 337 330 322 313 305 299 295 293 292 291 290 284 269 258 259 263 266
142 142 141 141 144 144 148 140 137 140 140 142 138 107 73 50 35 8 38 19 26 8 352 342 334 324 316 311 309 310 308 304 302 301 294 288 284 279 280 277 269 266 264
136 134 131 130 126 123 124 118 117 120 129 112 97 85 66 61 59 57 47 34 14 351 341 332 326 326 325 325 325 321 320 313 304 300 298 298 290 286 284 272 275 277 273
127 119 119 118 117 116 117 114 112 111 107 101 92 85 76 66 46 15 350 342 336 336 333 330 332 335 339 341 326 326 324 318 312 308 302 295 292 285 288 292 289 287 285
117 114 112 113 113 109 107 106 109 104 100 98 88 78 64 45 19 4 357 351 347 348 345 341 347 356 351 344 342 328 316 311 313 310 302 303 303 305 303 304 303 301 296
116 112 111 110 109 110 108 103 102 102 102 100 95 91 67 47 21 359 350 345 349 351 354 351 347 347 340 333 327 322 318 320 322 313 314 311 306 304 300 301 300 298 293
113 112 111 108 106 105 104 105 101 99 98 92 91 77 76 77 347 344 339 339 344 343 357 354 350 348 342 336 331 321 322 324 322 314 313 310 307 306 304 301 300 296 293
114 118 114 110 108 105 102 99 98 87 81 88 85 77 41 0 344 339 338 344 335 344 3 354 347 342 335 328 322 319 316 314 312 311 310 308 306 304 304 302 300 296 295
121 122 119 115 110 109 106 105 105 98 82 60 39 7 350 335 332 333 335 337 358 7 6 354 343 336 333 328 324 319 317 315 315 311 310 309 309 307 306 303 301 300 300
120 119 117 113 110 110 106 105 100 91 82 68 45 10 354 347 340 339 346 17 18 6 4 358 350 343 337 332 326 323 318 316 315 316 312 311 308 309 307 303 302 302 302
113 114 113 111 113 108 103 97 89 80 70 56 38 21 24 14 19 20 20 21 18 8 1 353 345 339 333 330 327 323 320 318 316 314 312 310 310 308 305 304 304 303 302
114 114 112 111 107 103 100 94 88 83 78 62 37 34 35 39 23 16 10 5 2 356 347 341 335 332 330 327 324 320 318 317 317 316 315 312 310 311 310 306 305 304 304
113 112 110 106 104 101 95 91 89 85 77 70 56 27 28 26 16 5 356 348 345 341 335 331 331 327 325 323 322 319 318 317 318 316 314 313 313 310 309 307 306 306 306
111 110 108 104 99 96 93 90 84 79 76 67 49 28 15 4 355 349 344 341 338 334 330 328 325 325 325 324 324 323 318 316 315 315 313 312 310 308 306 306 307 306 305
108 108 104 102 100 96 91 88 83 76 64 46 29 13 359 351 346 343 342 340 338 335 333 335 337 340 341 341 341 335 329 325 322 321 316 307 305 306 304 303 304 305 306
107 105 102 100 97 93 89 85 73 59 44 27 11 360 352 351 349 347 345 345 346 347 348 352 355 353 349 344 337 334 330 325 321 318 315 312 303 300 301 301 302 305 306
103 101 99 97 94 91 83 72 58 42 25 11 3 359 357 355 351 349 350 352 352 351 354 353 350 346 341 338 337 333 328 324 321 318 314 312 309 301 299 297 298 300 304
Height
1445 1449 1453 1457 1461 1466 1470 1474 1479 1484 1488 1492 1496 1498 1501 1504 1506 1509 1510 1510 1509 1509 1508 1506 1505 1504 1502 1500 1496 1496 1492 1492 1489 1489 1488 1493 1489 1490 1489 1490 1492 1493 1493
1439 1444 1448 1453 1456 1460 1463 1468 1473 1477 1481 1485 1489 1491 1494 1497 1499 1499 1500 1499 1500 1499 1497 1495 1492 1490 1486 1481 1483 1483 1481 1480 1479 1477 1478 1481 1478 1477 1478 1479 1481 1481 1486
1435 1439 1443 1446 1450 1454 1458 1463 1467 1471 1475 1479 1483 1485 1487 1488 1489 1489 1489 1491 1491 1488 1486 1483 1483 1480 1474 1472 1469 1469 1467 1469 1467 1469 1466 1468 1466 1466 1465 1469 1473 1475 1476
1430 1433 1436 1440 1444 1449 1453 1457 1461 1465 1469 1472 1475 1477 1478 1480 1481 1481 1479 1479 1478 1478 1476 1474 1472 1467 1466 1465 1463 1461 1459 1457 1456 1454 1452 1454 1451 1455 1455 1457 1460 1462 1466
1424 1428 1432 1436 1439 1443 1446 1450 1454 1458 1461 1465 1467 1469 1470 1471 1472 1473 1472 1470 1468 1466 1464 1462 1461 1459 1457 1456 1455 1452 1451 1450 1447 1447 1446 1446 1447 1444 1446 1448 1455 1455 1455
1419 1424 1428 1431 1435 1438 1441 1445 1449 1452 1455 1458 1459 1461 1462 1463 1462 1462 1461 1460 1458 1457 1455 1454 1453 1450 1448 1447 1446 1444 1443 1441 1443 1443 1436 1440 1440 1441 1446 1446 1447 1450 1451
1414 1418 1423 1427 1430 1433 1436 1439 1443 1445 1448 1451 1452 1453 1453 1453 1453 1453 1454 1452 1450 1448 1447 1445 1444 1441 1440 1438 1437 1437 1436 1435 1435 1437 1438 1437 1438 1438 1441 1444 1444 1444 1443
1409 1414 1417 1421 1426 1430 1434 1437 1439 1440 1442 1443 1444 1445 1446 1446 1446 1446 1445 1444 1443 1442 1441 1440 1438 1437 1435 1434 1433 1433 1433 1433 1433 1434 1434 1433 1434 1434 1435 1435 1437 1438 1439
1403 1409 1413 1417 1421 1425 1428 1432 1434 1436 1437 1438 1439 1439 1440 1440 1440 1440 1439 1438 1438 1438 1437 1437 1436 1435 1434 1434 1433 1433 1433 1433 1433 1434 1434 1432 1431 1430 1430 1431 1432 1433 1431
1401 1406 1410 1414 1419 1422 1425 1427 1429 1431 1433 1434 1435 1436 1436 1436 1436 1436 1436 1437 1438 1437 1437 1437 1437 1437 1438 1437 1436 1434 1433 1432 1431 1430 1429 1427 1426 1425 1426 1425 1425 1425 1424
1400 1403 1408 1412 1416 1420 1423 1426 1428 1430 1432 1433 1434 1434 1435 1436 1436 1436 1437 1438 1438 1439 1439 1439 1438 1437 1436 1435 1434 1432 1431 1429 1427 1426 1424 1423 1422 1421 1420 1420 1419 1418 1416
1402 1403 1407 1411 1416 1420 1423 1426 1428 1430 1431 1433 1435 1436 1437 1438 1440 1440 1441 1441 1440 1440 1439 1438 1436 1435 1433 1431 1430 1428 1427 1426 1425 1424 1422 1421 1419 1418 1416 1414 1411 1410 1408
1400 1406 1408 1413 1416 1421 1424 1426 1429 1431 1433 1435 1436 1438 1440 1441 1442 1442 1442 1441 1440 1439 1437 1436 1434 1432 1431 1429 1428 1426 1425 1424 1423 1422 1421 1419 1416 1414 1411 1408 1405 1402 1399
1402 1410 1412 1416 1418 1424 1427 1428 1430 1434 1436 1438 1439 1440 1441 1442 1442 1442 1441 1440 1439 1437 1436 1434 1432 1430 1429 1429 1428 1426 1424 1423 1421 1420 1418 1416 1413 1410 1407 1405 1402 1399 1396
1408 1413 1417 1421 1422 1426 1429 1432 1435 1438 1439 1441 1442 1442 1442 1441 1442 1441 1440 1440 1438 1437 1436 1435 1433 1432 1431 1430 1429 1427 1424 1422 1420 1417 1415 1413 1410 1407 1404 1402 1398 1395 1392
1409 1417 1422 1424 1426 1430 1432 1435 1439 1441 1441 1442 1443 1443 1442 1442 1442 1441 1440 1439 1437 1436 1435 1434 1432 1431 1430 1428 1427 1425 1423 1420 1417 1415 1413 1410 1407 1403 1400 1397 1394 1391 1387
1409 1422 1425 1428 1430 1434 1436 1438 1440 1443 1443 1443 1443 1442 1441 1442 1442 1441 1439 1437 1435 1435 1434 1433 1432 1430 1429 1427 1425 1423 1420 1418 1415 1413 1409 1406 1403 1400 1396 1393 1390 1386 1383
1417 1423 1425 1429 1431 1435 1437 1439 1443 1444 1444 1443 1442 1442 1441 1440 1440 1439 1437 1436 1436 1434 1434 1433 1431 1429 1427 1424 1422 1420 1417 1414 1411 1408 1405 1402 1399 1396 1392 1389 1386 1382 1379
1421 1425 1428 1428 1432 1437 1437 1439 1442 1443 1444 1444 1445 1443 1441 1440 1438 1437 1436 1436 1436 1435 1433 1431 1429 1426 1424 1422 1419 1416 1413 1410 1407 1404 1402 1399 1396 1392 1389 1386 1382 1379 1376
1424 1428 1429 1431 1434 1437 1438 1440 1441 1442 1443 1443 1443 1442 1442 1442 1441 1439 1437 1436 1435 1433 1430 1429 1426 1424 1421 1419 1416 1413 1410 1407 1404 1401 1398 1395 1392 1389 1386 1382 1379 1376 1373
1428 1430 1432 1434 1435 1437 1439 1440 1441 1443 1444 1445 1443 1442 1442 1443 1442 1440 1438 1435 1432 1430 1428 1426 1424 1421 1419 1416 1413 1410 1407 1403 1400 1397 1394 1392 1388 1385 1383 1380 1377 1374 1370
1431 1432 1434 1435 1437 1438 1439 1440 1442 1443 1444 1445 1445 1443 1441 1441 1440 1438 1436 1433 1430 1428 1425 1423 1420 1418 1415 1412 1409 1406 1403 1399 1397 1394 1391 1388 1386 1383 1380 1377 1374 1371 1368
1433 1435 1437 1437 1438 1439 1440 1441 1442 1443 1444 1444 1444 1443 1441 1440 1439 1436 1433 1430 1427 1424 1422 1419 1416 1413 1411 1408 1405 1402 1399 1397 1394 1390 1387 1385 1383 1380 1377 1374 1372 1368 1365
1436 1438 1438 1438 1440 1441 1442 1443 1444 1445 1445 1444 1443 1442 1441 1439 1437 1434 1431 1428 1425 1422 1419 1416 1413 1410 1408 1405 1402 1399 1396 1393 1390 1386 1383 1381 1378 1376 1374 1371 1368 1364 1361
1439 1440 1440 1441 1442 1443 1445 1445 1445 1445 1444 1443 1442 1441 1440 1437 1434 1432 1429 1426 1423 1420 1417 1414 1411 1409 1406 1404 1400 1397 1394 1390 1387 1383 1379 1376 1374 1371 1369 1366 1364 1361 1358
1440 1442 1443 1443 1444 1445 1446 1446 1445 1445 1444 1443 1442 1440 1437 1435 1433 1430 1427 1424 1421 1418 1415 1413 1410 1407 1405 1401 1398 1394 1390 1386 1382 1379 1375 1372 1369 1367 1365 1363 1360 1358 1355